Time,TemperatureF,DewpointF,PressureIn,WindDirection,WindDirectionDegrees,WindSpeedMPH,WindSpeedGustMPH,Humidity,HourlyPrecipIn,Conditions,Clouds,dailyrainin,SoftwareType,DateUTC
2013-05-03 00:03:00,64.0,58.0,30.13,NE,38,5.0,14.0,82,0.00,,,0.00,,2013-05-03 04:03:00,
2013-05-03 00:12:00,64.0,58.0,30.13,NE,38,5.0,14.0,82,0.00,,,0.00,,2013-05-03 04:12:00,
2013-05-03 00:23:00,64.0,58.0,30.13,NE,53,6.0,15.0,81,0.00,,,0.00,,2013-05-03 04:23:00,
2013-05-03 00:32:00,64.0,58.0,30.12,ENE,59,5.0,15.0,80,0.00,,,0.00,,2013-05-03 04:32:00,
2013-05-03 00:43:00,64.0,58.0,30.12,ENE,59,5.0,15.0,80,0.00,,,0.00,,2013-05-03 04:43:00,
2013-05-03 00:53:00,64.0,58.0,30.11,NNE,17,6.0,13.0,81,0.00,,,0.00,,2013-05-03 04:53:00,
2013-05-03 01:02:00,63.0,57.0,30.11,NE,36,4.0,14.0,81,0.00,,,0.00,,2013-05-03 05:02:00,
2013-05-03 01:12:00,63.0,57.0,30.11,NE,36,4.0,14.0,81,0.00,,,0.00,,2013-05-03 05:12:00,
2013-05-03 01:21:00,63.0,57.0,30.10,NNW,336,5.0,12.0,82,0.00,,,0.00,,2013-05-03 05:21:00,
2013-05-03 01:32:00,62.0,56.0,30.09,NE,43,7.0,16.0,82,0.00,,,0.00,,2013-05-03 05:32:00,
2013-05-03 01:42:00,62.0,56.0,30.09,NE,43,7.0,16.0,82,0.00,,,0.00,,2013-05-03 05:42:00,
2013-05-03 01:52:00,62.0,57.0,30.09,North,5,5.0,12.0,83,0.00,,,0.00,,2013-05-03 05:52:00,
2013-05-03 02:02:00,61.0,56.0,30.08,North,355,7.0,15.0,84,0.00,,,0.00,,2013-05-03 06:02:00,
2013-05-03 02:12:00,61.0,56.0,30.08,North,355,7.0,15.0,84,0.00,,,0.00,,2013-05-03 06:12:00,
2013-05-03 02:21:00,61.0,56.0,30.08,NNE,32,5.0,12.0,84,0.00,,,0.00,,2013-05-03 06:21:00,
2013-05-03 02:32:00,61.0,56.0,30.08,North,11,3.0,9.0,85,0.00,,,0.00,,2013-05-03 06:32:00,
2013-05-03 02:42:00,61.0,56.0,30.08,North,11,3.0,9.0,85,0.00,,,0.00,,2013-05-03 06:42:00,
2013-05-03 02:52:00,61.0,57.0,30.08,NNE,19,3.0,12.0,86,0.00,,,0.00,,2013-05-03 06:52:00,
2013-05-03 03:01:00,60.0,56.0,30.07,NNW,327,2.0,14.0,86,0.00,,,0.00,,2013-05-03 07:01:00,
2013-05-03 03:11:00,60.0,56.0,30.07,NNW,327,2.0,14.0,86,0.00,,,0.00,,2013-05-03 07:11:00,
2013-05-03 03:21:00,60.0,56.0,30.07,NNW,328,4.0,11.0,87,0.00,,,0.00,,2013-05-03 07:21:00,
2013-05-03 03:32:00,59.0,55.0,30.07,NNW,346,4.0,12.0,88,0.00,,,0.00,,2013-05-03 07:32:00,
2013-05-03 03:42:00,59.0,55.0,30.07,NNW,346,4.0,12.0,88,0.00,,,0.00,,2013-05-03 07:42:00,
2013-05-03 03:52:00,59.0,55.0,30.07,NNE,19,2.0,11.0,88,0.00,,,0.00,,2013-05-03 07:52:00,
2013-05-03 04:02:00,59.0,56.0,30.07,NNE,18,4.0,10.0,89,0.00,,,0.00,,2013-05-03 08:02:00,
2013-05-03 04:12:00,59.0,56.0,30.07,NNE,18,4.0,10.0,89,0.00,,,0.00,,2013-05-03 08:12:00,
2013-05-03 04:21:00,59.0,56.0,30.07,NNW,340,4.0,9.0,89,0.00,,,0.00,,2013-05-03 08:21:00,
2013-05-03 04:32:00,59.0,56.0,30.06,North,351,4.0,11.0,89,0.00,,,0.00,,2013-05-03 08:32:00,
2013-05-03 04:42:00,59.0,56.0,30.06,North,351,4.0,11.0,89,0.00,,,0.00,,2013-05-03 08:42:00,
2013-05-03 04:53:00,59.0,56.0,30.06,North,355,2.0,10.0,90,0.00,,,0.00,,2013-05-03 08:53:00,
2013-05-03 05:01:00,59.0,56.0,30.06,NNE,30,4.0,12.0,90,0.00,,,0.00,,2013-05-03 09:01:00,
2013-05-03 05:12:00,59.0,56.0,30.06,NNE,30,4.0,12.0,90,0.00,,,0.00,,2013-05-03 09:12:00,
2013-05-03 05:21:00,59.0,56.0,30.06,North,355,5.0,11.0,90,0.00,,,0.00,,2013-05-03 09:21:00,
2013-05-03 05:32:00,60.0,57.0,30.06,North,355,3.0,9.0,91,0.00,,,0.00,,2013-05-03 09:32:00,
2013-05-03 05:42:00,60.0,57.0,30.06,North,355,3.0,9.0,91,0.00,,,0.00,,2013-05-03 09:42:00,
2013-05-03 05:53:00,60.0,57.0,30.06,North,360,4.0,11.0,91,0.00,,,0.00,,2013-05-03 09:53:00,
2013-05-03 06:03:00,60.0,57.0,30.06,North,355,3.0,9.0,91,0.00,,,0.00,,2013-05-03 10:03:00,
2013-05-03 06:12:00,60.0,57.0,30.06,North,355,3.0,9.0,91,0.00,,,0.00,,2013-05-03 10:12:00,
2013-05-03 06:22:00,60.0,57.0,30.06,NW,304,3.0,12.0,91,0.00,,,0.00,,2013-05-03 10:22:00,
2013-05-03 06:32:00,59.0,56.0,30.06,NNW,327,4.0,10.0,91,0.00,,,0.00,,2013-05-03 10:32:00,
2013-05-03 06:42:00,59.0,56.0,30.06,NNW,327,4.0,10.0,91,0.00,,,0.00,,2013-05-03 10:42:00,
2013-05-03 06:52:00,59.0,56.0,30.07,North,355,4.0,10.0,91,0.00,,,0.00,,2013-05-03 10:52:00,
2013-05-03 07:02:00,59.0,56.0,30.07,NE,36,3.0,12.0,91,0.00,,,0.00,,2013-05-03 11:02:00,
2013-05-03 07:11:00,59.0,56.0,30.07,NE,36,3.0,12.0,91,0.00,,,0.00,,2013-05-03 11:11:00,
2013-05-03 07:22:00,60.0,57.0,30.08,NNW,345,4.0,13.0,91,0.00,,,0.00,,2013-05-03 11:22:00,
2013-05-03 07:32:00,60.0,57.0,30.08,NNE,26,4.0,11.0,91,0.00,,,0.00,,2013-05-03 11:32:00,
2013-05-03 07:42:00,60.0,57.0,30.08,NNE,26,4.0,11.0,91,0.00,,,0.00,,2013-05-03 11:42:00,
2013-05-03 07:52:00,60.0,57.0,30.09,NNW,338,3.0,12.0,91,0.00,,,0.00,,2013-05-03 11:52:00,
2013-05-03 08:02:00,60.0,57.0,30.09,North,5,5.0,15.0,90,0.00,,,0.00,,2013-05-03 12:02:00,
2013-05-03 08:11:00,60.0,57.0,30.09,North,5,5.0,15.0,90,0.00,,,0.00,,2013-05-03 12:11:00,
2013-05-03 08:21:00,61.0,58.0,30.09,NNE,19,5.0,21.0,90,0.00,,,0.00,,2013-05-03 12:21:00,
2013-05-03 08:32:00,61.0,58.0,30.09,North,355,4.0,13.0,89,0.00,,,0.00,,2013-05-03 12:32:00,
2013-05-03 08:42:00,61.0,58.0,30.09,North,355,4.0,13.0,89,0.00,,,0.00,,2013-05-03 12:42:00,
2013-05-03 08:52:00,61.0,58.0,30.09,NNE,26,4.0,13.0,89,0.00,,,0.00,,2013-05-03 12:52:00,
2013-05-03 09:01:00,61.0,58.0,30.09,NE,34,5.0,18.0,89,0.00,,,0.00,,2013-05-03 13:01:00,
2013-05-03 09:11:00,61.0,58.0,30.09,NE,34,5.0,18.0,89,0.00,,,0.00,,2013-05-03 13:11:00,
2013-05-03 09:22:00,62.0,58.0,30.09,ENE,68,8.0,15.0,88,0.00,,,0.00,,2013-05-03 13:22:00,
2013-05-03 09:32:00,63.0,59.0,30.09,NNW,344,4.0,13.0,87,0.00,,,0.00,,2013-05-03 13:32:00,
2013-05-03 09:42:00,63.0,59.0,30.09,NNW,344,4.0,13.0,87,0.00,,,0.00,,2013-05-03 13:42:00,
2013-05-03 09:52:00,63.0,59.0,30.10,NNW,348,5.0,14.0,86,0.00,,,0.00,,2013-05-03 13:52:00,
2013-05-03 10:02:00,63.0,59.0,30.10,NE,42,2.0,14.0,86,0.00,,,0.00,,2013-05-03 14:02:00,
2013-05-03 10:11:00,63.0,59.0,30.10,NE,42,2.0,14.0,86,0.00,,,0.00,,2013-05-03 14:11:00,
2013-05-03 10:22:00,63.0,59.0,30.11,NNE,18,5.0,13.0,86,0.00,,,0.00,,2013-05-03 14:22:00,
2013-05-03 10:32:00,63.0,59.0,30.11,ENE,72,6.0,15.0,86,0.00,,,0.00,,2013-05-03 14:32:00,
2013-05-03 10:42:00,63.0,59.0,30.11,ENE,72,6.0,15.0,86,0.00,,,0.00,,2013-05-03 14:42:00,
2013-05-03 10:52:00,63.0,59.0,30.10,NNE,18,5.0,13.0,86,0.00,,,0.00,,2013-05-03 14:52:00,
2013-05-03 11:01:00,64.0,59.0,30.11,NE,39,5.0,13.0,85,0.00,,,0.00,,2013-05-03 15:01:00,
2013-05-03 11:11:00,64.0,59.0,30.11,NE,39,5.0,13.0,85,0.00,,,0.00,,2013-05-03 15:11:00,
2013-05-03 11:22:00,64.0,60.0,30.11,East,79,5.0,15.0,86,0.00,,,0.00,,2013-05-03 15:22:00,
2013-05-03 11:32:00,64.0,60.0,30.11,East,87,7.0,17.0,87,0.00,,,0.00,,2013-05-03 15:32:00,
2013-05-03 11:43:00,64.0,60.0,30.11,East,87,7.0,17.0,87,0.00,,,0.00,,2013-05-03 15:43:00,
2013-05-03 11:53:00,64.0,60.0,30.10,North,355,6.0,19.0,86,0.00,,,0.00,,2013-05-03 15:53:00,
2013-05-03 12:03:00,64.0,60.0,30.10,North,10,7.0,19.0,86,0.00,,,0.00,,2013-05-03 16:03:00,
2013-05-03 12:13:00,64.0,60.0,30.10,North,10,7.0,19.0,86,0.00,,,0.00,,2013-05-03 16:13:00,
2013-05-03 12:23:00,65.0,61.0,30.10,NE,49,4.0,18.0,86,0.00,,,0.00,,2013-05-03 16:23:00,
2013-05-03 12:33:00,65.0,61.0,30.10,SSE,148,6.0,16.0,86,0.00,,,0.00,,2013-05-03 16:33:00,
2013-05-03 12:42:00,65.0,61.0,30.10,SSE,148,6.0,16.0,86,0.00,,,0.00,,2013-05-03 16:42:00,
2013-05-03 12:52:00,66.0,61.0,30.10,North,355,5.0,18.0,85,0.00,,,0.00,,2013-05-03 16:52:00,
2013-05-03 13:02:00,66.0,61.0,30.10,North,355,5.0,18.0,85,0.00,,,0.00,,2013-05-03 17:02:00,
2013-05-03 13:12:00,66.0,61.0,30.09,NE,38,4.0,18.0,85,0.00,,,0.00,,2013-05-03 17:12:00,
2013-05-03 13:23:00,66.0,61.0,30.09,NE,38,4.0,18.0,85,0.00,,,0.00,,2013-05-03 17:23:00,
2013-05-03 13:32:00,65.0,61.0,30.09,North,355,4.0,16.0,87,0.00,,,0.00,,2013-05-03 17:32:00,
2013-05-03 13:42:00,65.0,61.0,30.09,North,355,4.0,16.0,87,0.00,,,0.00,,2013-05-03 17:42:00,
2013-05-03 13:52:00,65.0,60.0,30.09,NE,51,10.0,20.0,85,0.00,,,0.00,,2013-05-03 17:52:00,
2013-05-03 14:01:00,65.0,61.0,30.09,NE,34,5.0,15.0,86,0.00,,,0.00,,2013-05-03 18:01:00,
2013-05-03 14:12:00,65.0,61.0,30.09,NE,34,5.0,15.0,86,0.00,,,0.00,,2013-05-03 18:12:00,
2013-05-03 14:21:00,65.0,61.0,30.09,ESE,105,8.0,22.0,87,0.00,,,0.00,,2013-05-03 18:21:00,
2013-05-03 14:32:00,65.0,61.0,30.09,ESE,105,8.0,22.0,87,0.00,,,0.00,,2013-05-03 18:32:00,
2013-05-03 14:42:00,65.0,61.0,30.09,ESE,105,8.0,22.0,87,0.00,,,0.00,,2013-05-03 18:42:00,
2013-05-03 14:51:00,66.0,60.0,30.08,North,360,6.0,19.0,81,0.00,,,0.00,,2013-05-03 18:51:00,
2013-05-03 15:01:00,67.0,60.0,30.09,SE,130,4.0,16.0,77,0.00,,,0.00,,2013-05-03 19:01:00,
2013-05-03 15:11:00,67.0,60.0,30.09,SE,130,4.0,16.0,77,0.00,,,0.00,,2013-05-03 19:11:00,
2013-05-03 15:21:00,67.0,60.0,30.09,SE,130,4.0,16.0,77,0.00,,,0.00,,2013-05-03 19:21:00,
2013-05-03 15:32:00,68.0,59.0,30.07,ESE,109,4.0,15.0,73,0.00,,,0.00,,2013-05-03 19:32:00,
2013-05-03 15:42:00,68.0,59.0,30.07,ESE,109,4.0,15.0,73,0.00,,,0.00,,2013-05-03 19:42:00,
2013-05-03 15:52:00,67.0,58.0,30.06,WSW,240,8.0,22.0,74,0.00,,,0.00,,2013-05-03 19:52:00,
2013-05-03 16:02:00,66.0,58.0,30.06,NNE,32,7.0,19.0,75,0.00,,,0.00,,2013-05-03 20:02:00,
2013-05-03 16:12:00,66.0,58.0,30.06,NNE,32,7.0,19.0,75,0.00,,,0.00,,2013-05-03 20:12:00,
2013-05-03 16:21:00,66.0,57.0,30.06,WNW,282,6.0,18.0,73,0.00,,,0.00,,2013-05-03 20:21:00,
2013-05-03 16:32:00,66.0,58.0,30.06,East,80,6.0,15.0,75,0.00,,,0.00,,2013-05-03 20:32:00,
2013-05-03 16:42:00,66.0,58.0,30.06,East,80,6.0,15.0,75,0.00,,,0.00,,2013-05-03 20:42:00,
2013-05-03 16:52:00,65.0,58.0,30.06,East,85,6.0,16.0,77,0.00,,,0.00,,2013-05-03 20:52:00,
2013-05-03 17:01:00,64.0,57.0,30.06,ENE,63,7.0,18.0,77,0.00,,,0.00,,2013-05-03 21:01:00,
2013-05-03 17:11:00,64.0,57.0,30.06,ENE,63,7.0,18.0,77,0.00,,,0.00,,2013-05-03 21:11:00,
2013-05-03 17:21:00,65.0,57.0,30.06,NNE,28,5.0,17.0,75,0.00,,,0.00,,2013-05-03 21:21:00,
2013-05-03 17:33:00,65.0,57.0,30.05,NNW,348,5.0,16.0,75,0.00,,,0.00,,2013-05-03 21:33:00,
2013-05-03 17:42:00,65.0,57.0,30.05,NNW,348,5.0,16.0,75,0.00,,,0.00,,2013-05-03 21:42:00,
2013-05-03 17:52:00,65.0,57.0,30.05,ENE,74,5.0,14.0,75,0.00,,,0.00,,2013-05-03 21:52:00,
2013-05-03 18:03:00,65.0,57.0,30.04,NE,55,7.0,19.0,75,0.00,,,0.00,,2013-05-03 22:03:00,
2013-05-03 18:13:00,65.0,57.0,30.04,NE,55,7.0,19.0,75,0.00,,,0.00,,2013-05-03 22:13:00,
2013-05-03 18:22:00,66.0,57.0,30.05,East,100,7.0,19.0,73,0.00,,,0.00,,2013-05-03 22:22:00,
2013-05-03 18:32:00,66.0,57.0,30.05,East,80,6.0,16.0,73,0.00,,,0.00,,2013-05-03 22:32:00,
2013-05-03 18:42:00,66.0,57.0,30.05,East,80,6.0,16.0,73,0.00,,,0.00,,2013-05-03 22:42:00,
2013-05-03 18:52:00,65.0,56.0,30.05,NNE,18,6.0,18.0,72,0.00,,,0.00,,2013-05-03 22:52:00,
2013-05-03 19:02:00,65.0,57.0,30.05,NW,315,7.0,18.0,75,0.00,,,0.00,,2013-05-03 23:02:00,
2013-05-03 19:11:00,65.0,57.0,30.05,NW,315,7.0,18.0,75,0.00,,,0.00,,2013-05-03 23:11:00,
2013-05-03 19:22:00,65.0,56.0,30.05,NNW,348,4.0,18.0,72,0.00,,,0.00,,2013-05-03 23:22:00,
2013-05-03 19:32:00,64.0,55.0,30.06,NE,53,5.0,15.0,73,0.00,,,0.00,,2013-05-03 23:32:00,
2013-05-03 19:41:00,64.0,55.0,30.06,NE,53,5.0,15.0,73,0.00,,,0.00,,2013-05-03 23:41:00,
2013-05-03 19:52:00,64.0,55.0,30.05,East,82,6.0,16.0,72,0.00,,,0.00,,2013-05-03 23:52:00,
2013-05-03 20:01:00,64.0,52.0,30.05,ENE,57,5.0,17.0,66,0.00,,,0.00,,2013-05-04 00:01:00,
2013-05-03 20:11:00,64.0,52.0,30.05,ENE,57,5.0,17.0,66,0.00,,,0.00,,2013-05-04 00:11:00,
2013-05-03 20:23:00,64.0,50.0,30.05,SE,136,8.0,19.0,60,0.00,,,0.00,,2013-05-04 00:23:00,
2013-05-03 20:32:00,64.0,53.0,30.06,SSE,165,5.0,17.0,67,0.00,,,0.00,,2013-05-04 00:32:00,
2013-05-03 20:42:00,64.0,53.0,30.06,SSE,165,5.0,17.0,67,0.00,,,0.00,,2013-05-04 00:42:00,
2013-05-03 20:52:00,63.0,52.0,30.06,NNE,17,8.0,17.0,68,0.00,,,0.00,,2013-05-04 00:52:00,
2013-05-03 21:01:00,63.0,53.0,30.06,North,5,7.0,19.0,71,0.00,,,0.00,,2013-05-04 01:01:00,
2013-05-03 21:11:00,63.0,53.0,30.06,North,5,7.0,19.0,71,0.00,,,0.00,,2013-05-04 01:11:00,
2013-05-03 21:21:00,62.0,54.0,30.06,NE,46,7.0,17.0,74,0.00,,,0.00,,2013-05-04 01:21:00,
2013-05-03 21:32:00,62.0,52.0,30.06,NE,39,7.0,19.0,70,0.00,,,0.00,,2013-05-04 01:32:00,
2013-05-03 21:42:00,62.0,52.0,30.06,NE,39,7.0,19.0,70,0.00,,,0.00,,2013-05-04 01:42:00,
2013-05-03 21:52:00,62.0,48.0,30.06,NNW,346,8.0,21.0,61,0.00,,,0.00,,2013-05-04 01:52:00,
2013-05-03 22:02:00,62.0,47.0,30.06,East,92,9.0,18.0,59,0.00,,,0.00,,2013-05-04 02:02:00,
2013-05-03 22:11:00,62.0,47.0,30.06,East,92,9.0,18.0,59,0.00,,,0.00,,2013-05-04 02:11:00,
2013-05-03 22:21:00,61.0,48.0,30.07,ESE,115,6.0,20.0,63,0.00,,,0.00,,2013-05-04 02:21:00,
2013-05-03 22:32:00,61.0,49.0,30.07,East,96,7.0,17.0,64,0.00,,,0.00,,2013-05-04 02:32:00,
2013-05-03 22:42:00,61.0,49.0,30.07,East,96,7.0,17.0,64,0.00,,,0.00,,2013-05-04 02:42:00,
2013-05-03 22:52:00,60.0,49.0,30.07,ENE,67,6.0,20.0,67,0.00,,,0.00,,2013-05-04 02:52:00,
2013-05-03 23:02:00,60.0,50.0,30.07,NE,49,7.0,20.0,70,0.00,,,0.00,,2013-05-04 03:02:00,
2013-05-03 23:11:00,60.0,50.0,30.07,NE,49,7.0,20.0,70,0.00,,,0.00,,2013-05-04 03:11:00,
2013-05-03 23:22:00,59.0,50.0,30.07,NE,44,8.0,18.0,72,0.00,,,0.00,,2013-05-04 03:22:00,
2013-05-03 23:33:00,59.0,51.0,30.06,North,9,7.0,18.0,75,0.00,,,0.00,,2013-05-04 03:33:00,
2013-05-03 23:43:00,59.0,51.0,30.06,North,9,7.0,18.0,75,0.00,,,0.00,,2013-05-04 03:43:00,
2013-05-03 23:52:00,59.0,51.0,30.06,NNE,22,8.0,23.0,76,0.00,,,0.00,,2013-05-04 03:52:00,